Kezdőlap
METAR-TAF:

METAR-TAF

Repülőterek :

Black River Falls, Wisconsin, Amerikai Egyesült Államok

földrajzi szélesség: 44-15-03N, földrajzi hosszúság: 090-51-19W, magasság: 255 m

Jelenlegi meteorológiai megfigyelések

A jelentés 21 perccel ezelõtt készült, 15:15 UTC
Északnyugati szél 5 kt
Hőmérséklet 10°C
Páratartalom 76%
Légköri nyomás 1018 hPa
Látótávolság: 16.1 km
Szakadozott felhőzet 2000 lábon
Borult 2900 lábon

METAR: KBCK 011515Z AUTO 32005KT 10SM BKN020 OVC029 10/06 A3005 RMK AO2 T01000062

Idő: 10:36 (15:36 UTC)


TAF: hiányzik

Meteorológiai megfigyelések és előrejelzések több, mint 4000 repülőtéren (METAR és TAF jelentéseket).

A térképen piros és sárga pontok jelzik az elérhető meteorológiai állomásokat.

Mozgassa az egeret a pont fölött, hogy megjelenjen az állomás neve.

Azután kattintson az időjárási megfigyelések és előrejelzések megtekintéséhez.

A térkép megváltoztatása: kattintson a fekete keresztel jelölt zöld gombra ráközelítéshez, a vonallal jelölt zöld gombra távolításhoz, vagy a zöld nyilakra a szomszédos térképek eléréséhez.


METAR-TAF: